This demonstration page uses our WeatherBlox Daily Observations layout. Learn more.

Left ArrowRight Arrow

44.8408, -93.29828

Hourly Observations for September 22, 2020

Temp ( °F °C ) Dew Point ( °F °C ) Humidity (%) Winds ( mph kmh ) Pressure ( in mb ) Visibility ( mi km ) Precip ( " mm )
12:53 am 00:53 Mostly Clear 65 18.3 56 13.3 73 73 S 6 9 30.08 1019 10 16 0.00 0.00
1:53 am 01:53 Partly Cloudy 65 18.3 56 13.3 73 73 SSW 5 7 30.09 1019 10 16 0.00 0.00
2:53 am 02:53 Partly Cloudy 64 17.8 56 13.3 75 75 SSW 7 11 30.09 1019 10 16 0.00 0.00
3:53 am 03:53 Partly Cloudy 63 17.2 56 13.3 78 78 SW 6 9 30.09 1019 10 16 0.00 0.00
4:53 am 04:53 Partly Cloudy 61 16.1 55 12.8 81 81 Calm 30.09 1019 10 16 0.00 0.00
5:53 am 05:53 Mostly Clear 62 16.7 57 13.9 84 84 SSW 5 7 30.09 1019 10 16 0.00 0.00
6:53 am 06:53 Mostly Clear 61 16.1 57 13.9 87 87 Calm 30.10 1019 10 16 0.00 0.00
7:53 am 07:53 Mostly Sunny 62 16.7 58 14.4 86 86 S 3 6 30.11 1020 9 14 0.00 0.00
8:53 am 08:53 Mostly Sunny 63 17.2 58 14.4 84 84 SSW 3 6 30.11 1020 9 14 0.00 0.00
9:53 am 09:53 Sunny 66 18.9 58 14.4 75 75 WSW 6 9 30.11 1020 10 16 0.00 0.00
10:53 am 10:53 Sunny 69 20.6 59 15 70 70 Calm 30.10 1019 10 16 0.00 0.00
11:53 am 11:53 Sunny 72 22.2 60 15.6 66 66 S 3 6 30.09 1019 10 16 0.00 0.00
12:53 pm 12:53 Sunny 77 25 61 16.1 58 58 SSE 6 9 30.06 1018 10 16 0.00 0.00
1:53 pm 13:53 Sunny 78 25.6 60 15.6 54 54 S 7 11 30.04 1017 10 16 0.00 0.00
2:53 pm 14:53 Sunny 81 27.2 60 15.6 49 49 SSE 8 13 30.01 1016 10 16 0.00 0.00
3:53 pm 15:53 Sunny 82 27.8 57 13.9 42 42 SSW 10 17 30.00 1016 10 16 0.00 0.00
4:53 pm 16:53 Sunny 82 27.8 57 13.9 42 42 S 10 17 29.98 1015 10 16 0.00 0.00
5:53 pm 17:53 Sunny 81 27.2 57 13.9 44 44 SSW 8 13 29.98 1015 10 16 0.00 0.00
6:53 pm 18:53 Sunny 79 26.1 58 14.4 49 49 S 5 7 29.98 1015 10 16 0.00 0.00
7:53 pm 19:53 Clear 75 23.9 59 15 58 58 SSE 6 9 29.98 1015 10 16 0.00 0.00
8:53 pm 20:53 Clear 73 22.8 59 15 62 62 S 6 9 29.99 1016 10 16 0.00 0.00
9:53 pm 21:53 Clear 71 21.7 58 14.4 63 63 SSE 6 9 29.98 1015 10 16 0.00 0.00
10:53 pm 22:53 Clear 68 20 57 13.9 68 68 SSE 6 9 29.99 1016 10 16 0.00 0.00
11:53 pm 23:53 Clear 67 19.4 57 13.9 71 71 SE 5 7 29.98 1015 10 16 0.00 0.00

Powered by AerisWeather